Starnakel — PC8649 — position and weather

sailwx.info

Track history (hours):
 
Tides and Currents Weather Stations Pressure Air Temp Water Temp Dewpoint Dewpoint Depression Visibility Wind Speed Wind Dir Waves Ship Positions

Starnakel

Last reported at 2017-Sep-17 14:09 UTC. Time now 2017-Sep-24 03:35 UTC.
Position N 41°15' E 001°55'.

Length 11 m.

Type: Sailing vessel. MMSI: 244730939.

Date/timePositionNaut miles runAvg speedWind from/ knotsBaromVisibWave heightAir tempDewpointWater temp
2017-Sep-17 14:09N 41°15' E 001°55'1 4.6
2017-Sep-17 14:00N 41°15' E 001°55'2 4.2
2017-Sep-17 13:29N 41°13' E 001°53'3 5.3
2017-Sep-17 12:59N 41°12' E 001°50'2 4.9
2017-Sep-17 12:29N 41°12' E 001°46'3 5.0
2017-Sep-17 11:58N 41°11' E 001°43'3 5.3
2017-Sep-17 11:28N 41°11' E 001°40'  
2017-Sep-13 14:52N 40°32' E 000°36'2 4.7
2017-Sep-13 14:30N 40°30' E 000°37'  
Track history (hours):
 
Tides and Currents Weather Stations Pressure Air Temp Water Temp Dewpoint Dewpoint Depression Visibility Wind Speed Wind Dir Waves Ship Positions

Starnakel

Last reported at 2017-Sep-17 14:09 UTC. Time now 2017-Sep-24 03:35 UTC.
Position N 41°15' E 001°55'.

Length 11 m.

Type: Sailing vessel. MMSI: 244730939.

Date/timePositionNaut miles runAvg speedWind from/ knotsBaromVisibWave heightAir tempDewpointWater temp
2017-Sep-17 14:09N 41°15' E 001°55'1 4.6
2017-Sep-17 14:00N 41°15' E 001°55'2 4.2
2017-Sep-17 13:29N 41°13' E 001°53'3 5.3
2017-Sep-17 12:59N 41°12' E 001°50'2 4.9
2017-Sep-17 12:29N 41°12' E 001°46'3 5.0
2017-Sep-17 11:58N 41°11' E 001°43'3 5.3
2017-Sep-17 11:28N 41°11' E 001°40'  
2017-Sep-13 14:52N 40°32' E 000°36'2 4.7
2017-Sep-13 14:30N 40°30' E 000°37'  

Dump ship's entire track history